Wind_Speed
35 35 42 55 60 61 58 56 56 50 45 42 36 35 36 33 31 30 34 35 34 28 25 23 23 22 22 15 15 9 4 6 6 7 8 12 18 11 8 4 2 2 5 8 8 7 10 18 16
33 30 37 49 57 58 61 52 52 53 47 42 40 34 32 31 30 30 28 25 24 25 24 22 20 21 22 16 16 11 9 5 5 7 10 15 4 10 4 2 4 3 7 5 5 9 16 17 18
31 27 33 48 50 53 57 55 49 47 51 45 40 35 29 26 28 25 24 23 20 22 23 24 21 21 25 22 18 13 9 9 12 14 14 16 7 7 4 3 7 6 8 6 10 15 16 18 16
27 27 31 44 45 49 52 55 54 49 45 47 45 38 34 28 26 21 21 21 19 18 18 19 20 22 22 25 25 17 18 13 12 15 14 7 10 3 3 6 3 4 2 6 16 17 19 21 22
22 26 28 36 40 45 48 51 54 52 47 46 44 42 37 30 24 23 19 15 15 15 15 15 16 17 17 20 22 19 19 17 18 12 8 6 5 0 5 5 3 4 14 20 21 19 21 24 20
18 21 17 31 35 41 44 48 49 50 51 46 44 43 41 36 29 26 21 17 14 13 14 15 15 14 16 17 16 14 11 12 9 9 9 12 8 4 1 10 13 16 16 18 16 24 22 21 15
17 18 13 25 30 37 40 41 44 47 49 48 48 45 42 38 38 35 25 21 20 15 12 13 13 13 12 15 13 14 13 12 12 16 17 12 6 6 7 8 12 12 10 18 23 21 17 14 12
12 14 14 15 27 29 34 36 39 44 46 47 46 48 46 42 38 36 38 29 20 19 18 15 14 12 12 13 12 12 14 12 11 13 9 8 7 10 13 14 13 13 16 17 12 11 11 8 4
6 12 13 12 17 25 26 30 34 39 40 43 44 46 47 46 42 39 37 37 33 23 20 20 19 14 8 10 11 13 13 11 9 7 8 7 8 6 10 10 9 9 12 18 19 18 13 11 10
5 7 9 15 12 20 26 30 30 32 35 39 39 43 45 47 44 42 39 37 34 34 28 23 22 21 10 13 15 13 11 10 8 8 8 6 4 5 4 6 1 15 23 30 26 25 22 19 16
2 7 9 16 13 15 21 25 25 27 29 34 36 37 41 43 44 43 41 38 37 33 33 30 27 25 23 14 15 17 14 10 9 8 6 4 2 2 2 8 14 20 24 32 34 31 29 27 24
5 4 9 10 8 7 11 21 22 23 25 28 30 31 33 41 43 42 41 39 37 36 32 30 29 27 25 23 17 15 12 11 9 7 5 3 3 7 13 15 17 18 23 23 35 37 36 33 30
7 7 5 5 7 5 13 18 18 17 21 21 24 28 28 33 38 42 41 39 38 36 33 30 28 27 25 23 21 18 14 11 9 7 6 8 15 16 19 19 19 21 24 29 32 33 36 38 39
12 10 11 4 4 6 12 12 10 12 14 17 19 23 23 26 30 37 41 39 38 35 33 31 28 25 26 24 20 18 17 15 13 12 14 15 17 20 21 20 21 23 26 32 34 34 35 35 34
15 16 14 8 12 8 3 4 8 5 8 8 13 17 20 23 24 28 34 37 35 35 33 31 28 24 23 23 22 18 16 14 13 15 15 18 19 20 20 18 21 24 29 33 33 34 36 36 35
29 22 23 20 15 14 9 5 3 3 6 9 6 8 15 17 22 27 30 34 34 32 32 28 27 26 22 22 21 18 14 12 12 16 18 19 17 17 19 19 24 25 28 30 29 30 31 31 30
33 31 27 30 27 21 16 8 14 14 13 10 8 1 6 12 15 20 24 29 30 31 29 28 24 25 23 21 19 19 16 16 14 16 16 16 15 16 18 19 23 23 25 27 27 28 29 29 28
37 39 36 28 33 33 25 21 22 13 15 12 13 11 6 5 8 13 20 23 26 27 29 24 25 21 22 22 19 17 16 16 16 14 12 14 14 16 18 20 21 22 21 23 24 25 26 27 26
44 43 42 38 36 37 34 29 26 18 15 11 15 11 6 5 9 12 15 19 21 25 25 25 20 20 18 19 18 14 14 14 16 15 12 13 13 15 18 19 19 20 19 19 21 22 24 24 23
51 49 47 44 43 42 42 40 34 31 32 32 26 22 18 19 18 19 16 18 19 20 23 22 19 17 15 15 16 14 11 12 14 14 13 13 12 12 15 17 17 17 18 17 17 21 21 20 19
57 56 53 51 49 48 47 48 44 40 38 36 34 32 28 29 27 26 24 23 20 18 18 19 19 14 13 12 11 12 10 10 11 12 14 14 13 12 12 14 16 14 14 16 16 17 17 16 15
61 61 60 58 56 56 56 54 54 52 47 43 38 34 34 33 33 32 30 30 27 20 15 17 17 15 11 9 9 8 8 8 7 8 11 12 12 12 13 14 13 13 13 12 13 14 12 11 11
67 68 66 64 62 61 61 61 60 61 60 52 48 43 41 39 40 37 37 34 31 27 19 16 17 15 11 10 6 5 4 6 5 3 5 8 11 12 12 12 14 13 13 11 10 9 8 8 10
74 74 73 71 68 66 69 65 67 67 64 60 56 51 48 46 44 41 38 37 39 34 31 22 18 18 14 10 10 5 4 4 5 5 1 3 5 6 8 8 8 8 8 8 5 6 4 4 6
81 79 76 76 75 76 74 70 74 73 68 67 66 64 58 55 53 51 47 43 42 39 37 33 22 19 21 16 11 10 7 6 8 9 7 2 2 1 2 3 5 2 3 4 3 2 1 1 2
82 83 85 82 80 81 77 78 80 79 75 73 71 69 68 65 62 58 55 51 48 48 42 37 33 22 25 23 18 14 13 11 10 12 12 11 9 6 5 6 6 6 5 5 4 4 3 4 3
75 79 81 84 85 86 84 83 85 84 81 81 79 75 73 72 70 66 62 60 56 52 49 44 39 31 28 31 26 22 18 17 14 13 16 17 15 12 11 10 6 10 11 10 9 8 9 9 5
79 79 80 80 80 80 83 84 87 86 85 88 86 82 81 78 76 74 70 69 65 62 57 50 46 42 37 34 34 31 24 21 20 18 17 17 21 22 20 19 17 16 16 14 12 12 13 12 13
79 79 80 81 81 80 80 81 79 81 85 88 88 86 84 82 79 78 77 74 71 68 64 58 53 50 47 40 40 37 33 28 25 24 22 20 20 24 26 27 26 23 19 22 19 17 16 16 14
80 81 82 82 81 80 80 79 79 81 80 81 84 86 86 84 82 81 79 78 75 72 69 66 61 56 55 51 44 42 38 35 33 31 27 24 23 22 25 28 30 29 24 23 21 24 24 20 17
Wind_Direction
43 46 50 50 47 43 45 49 52 55 60 65 80 88 93 105 111 124 142 160 172 175 170 185 186 192 207 192 181 198 154 199 236 238 275 328 329 322 317 327 257 120 17 341 311 339 340 340 340
52 41 53 51 50 47 46 49 55 57 60 65 70 82 94 111 116 117 132 146 159 171 174 174 188 198 193 193 191 190 189 203 246 263 281 310 328 303 325 37 78 26 346 337 339 325 324 326 336
48 38 56 54 52 52 49 49 52 58 60 63 70 78 88 100 113 114 119 130 139 153 162 170 176 184 195 197 208 202 216 239 251 261 272 297 230 271 269 113 47 22 350 310 310 331 332 326 325
32 30 47 55 53 55 53 52 53 55 63 63 67 72 76 87 95 105 121 131 135 142 161 170 180 185 187 205 222 234 235 247 241 257 280 250 135 233 233 261 4 40 343 333 337 336 326 324 320
27 29 52 54 56 55 57 53 55 54 57 66 70 71 76 79 84 92 101 116 133 142 148 158 175 188 195 204 212 219 222 238 248 253 244 198 167 317 16 18 265 224 325 332 325 316 314 316 312
41 38 38 57 59 58 58 58 56 56 55 58 64 71 72 70 78 87 94 103 115 128 137 145 152 155 157 176 190 199 208 214 206 170 156 158 243 276 218 274 308 292 299 315 314 314 309 306 308
56 47 28 40 43 68 62 58 57 55 57 55 55 59 66 68 67 71 76 80 84 93 121 125 129 131 146 172 171 174 182 190 183 174 186 215 204 200 311 328 304 347 332 318 320 319 313 307 309
64 59 41 17 41 62 58 56 60 60 56 55 55 52 56 59 61 62 66 71 79 84 83 88 97 114 134 153 170 169 169 169 179 187 202 218 248 260 316 325 328 323 323 329 340 334 339 347 7
40 68 60 33 18 66 53 52 62 67 57 54 57 54 50 52 55 57 59 62 66 71 77 77 77 75 125 156 156 168 176 182 181 183 204 234 253 296 309 332 325 324 49 38 36 33 36 45 66
67 56 69 54 45 58 62 54 61 61 57 59 55 58 54 51 48 49 53 53 57 59 59 64 60 58 91 158 172 179 186 189 190 202 217 231 269 313 329 323 50 90 59 50 58 60 65 75 86
280 26 74 78 53 45 62 67 43 51 51 58 54 56 58 54 50 45 45 49 52 54 56 55 55 55 66 105 163 182 190 191 176 175 187 185 173 114 357 118 109 88 69 61 65 67 70 74 82
231 60 108 109 57 16 66 78 53 42 43 57 59 53 57 54 49 45 44 44 47 49 51 53 55 56 58 74 100 126 148 157 161 157 159 165 125 111 117 107 97 85 78 72 71 72 70 73 79
180 168 130 88 85 326 102 70 47 32 26 34 59 62 53 55 50 45 40 40 42 43 46 47 53 57 61 65 75 88 106 121 130 134 130 121 121 119 105 94 94 89 89 81 77 76 75 74 75
191 183 138 153 142 280 96 57 41 36 29 21 29 55 60 60 53 46 37 36 37 39 38 46 47 54 62 63 70 81 90 100 108 116 117 118 117 114 102 100 100 97 92 85 82 79 76 73 73
213 191 196 160 150 194 274 53 342 330 12 16 18 20 45 53 48 35 39 35 35 36 35 37 45 49 56 62 66 72 79 89 100 111 116 118 120 116 108 108 105 98 92 89 85 82 79 77 76
241 200 200 218 170 196 209 236 302 269 312 323 347 16 32 34 32 30 24 32 33 33 35 33 36 44 50 55 68 71 80 88 101 114 119 123 124 119 113 112 108 99 95 90 86 81 77 75 74
241 243 226 223 241 185 208 215 234 257 267 276 303 67 16 4 22 24 22 20 30 30 30 32 31 36 46 51 59 72 74 79 95 116 120 121 121 113 111 111 109 101 93 91 85 79 78 75 71
237 243 243 238 232 243 256 228 246 253 247 250 258 275 304 3 357 6 8 15 17 26 27 27 28 29 38 50 53 60 72 81 87 103 105 113 112 110 111 110 111 107 97 92 87 80 76 72 67
235 239 245 244 240 244 250 252 254 245 243 237 229 247 266 317 338 338 341 356 4 11 18 23 23 26 30 38 55 57 67 77 84 94 93 96 100 103 109 112 114 114 106 97 93 87 84 75 69
242 239 239 244 245 247 246 250 251 247 234 261 269 274 278 281 294 307 314 329 344 350 356 9 15 22 25 28 36 50 54 69 79 87 91 93 92 95 100 105 106 106 108 99 95 92 88 79 69
243 245 243 243 244 249 249 249 252 251 254 254 256 264 271 278 285 290 296 304 312 329 337 351 1 4 20 23 19 32 55 55 72 86 95 99 97 97 99 103 107 105 101 100 97 99 91 83 73
241 245 248 247 244 247 250 253 250 253 252 252 257 260 267 272 279 283 286 291 295 303 315 330 344 348 355 11 18 13 13 41 51 83 93 100 103 107 112 117 113 111 104 108 104 98 91 85 71
248 248 248 248 249 248 250 253 253 255 255 253 254 255 259 263 271 275 281 283 286 292 294 309 322 324 328 333 355 356 346 343 14 54 79 92 104 110 114 114 113 117 117 117 112 109 94 76 56
248 248 249 249 248 250 252 251 255 256 257 258 256 254 255 259 262 266 270 278 285 287 289 292 303 309 294 298 304 317 300 278 309 329 31 74 90 105 124 129 122 116 120 119 120 103 99 71 56
249 249 248 249 249 248 250 252 255 254 254 255 256 257 256 257 259 260 263 265 270 275 280 285 280 291 286 276 278 282 286 273 254 276 286 290 248 291 316 165 169 155 147 155 150 125 57 31 24
249 250 250 250 250 251 251 250 250 254 253 254 255 256 258 258 259 259 261 262 264 269 270 273 276 279 278 271 267 266 268 269 264 252 257 263 262 258 256 286 283 248 232 216 235 235 293 289 247
250 249 250 249 248 249 250 250 251 251 254 253 253 253 253 256 258 259 260 262 263 265 266 268 270 273 273 270 266 261 263 262 262 258 247 247 253 259 257 250 261 280 276 270 275 259 247 258 227
254 253 251 250 249 249 250 250 251 251 250 252 252 252 253 253 256 258 259 260 262 264 264 264 265 266 266 264 263 262 261 260 259 259 259 257 250 254 260 251 258 262 255 261 266 265 269 253 240
257 255 254 253 253 251 250 249 251 250 252 252 252 253 253 255 255 256 258 259 261 262 263 261 262 263 263 258 254 258 260 263 263 262 260 255 257 253 255 257 258 260 254 251 257 252 254 250 260
256 256 255 255 252 252 252 253 251 252 250 251 253 253 253 253 253 254 255 257 258 259 260 260 260 260 261 262 256 256 261 259 263 268 266 258 255 258 253 252 259 257 255 251 247 244 251 247 259
Height
11012 11009 11003 10995 10988 10983 10974 10968 10963 10959 10956 10953 10951 10952 10953 10956 10959 10962 10967 10972 10976 10979 10980 10982 10984 10986 10987 10991 10993 10995 10996 10996 10996 10996 10997 10996 10994 10993 10992 10991 10989 10988 10987 10987 10985 10983 10981 10979 10978
11015 11014 11009 11001 10995 10990 10984 10979 10975 10970 10967 10963 10961 10960 10961 10963 10966 10969 10973 10976 10978 10980 10982 10984 10985 10987 10989 10991 10993 10996 10996 10996 10996 10997 10996 10995 10997 10993 10993 10991 10990 10989 10988 10986 10983 10980 10979 10978 10976
11019 11019 11015 11007 11002 10998 10995 10989 10985 10981 10977 10974 10971 10969 10970 10971 10971 10974 10976 10978 10980 10982 10984 10985 10987 10988 10990 10991 10992 10996 10996 10997 10997 10997 10997 10997 10996 10995 10993 10992 10989 10988 10987 10985 10983 10980 10978 10976 10974
11023 11023 11020 11015 11011 11006 11003 11000 10994 10991 10987 10983 10980 10977 10978 10978 10977 10978 10979 10980 10982 10984 10985 10987 10988 10989 10991 10992 10993 10996 10996 10996 10996 10996 10997 10996 10996 10996 10994 10993 10991 10989 10987 10985 10982 10978 10976 10973 10971
11028 11027 11025 11020 11017 11013 11010 11008 11003 11000 10996 10992 10989 10986 10985 10985 10983 10982 10983 10984 10984 10985 10986 10987 10988 10989 10991 10992 10993 10993 10994 10995 10995 10996 10996 10997 10997 10995 10994 10992 10990 10988 10985 10982 10980 10978 10974 10971 10969
11032 11032 11030 11025 11023 11019 11017 11014 11012 11008 11004 11001 10998 10994 10993 10991 10990 10987 10986 10987 10987 10986 10986 10987 10988 10989 10991 10990 10990 10992 10994 10996 10996 10998 10997 10998 10996 10995 10995 10992 10989 10987 10985 10982 10979 10975 10971 10967 10966
11034 11034 11032 11030 11028 11025 11023 11022 11019 11015 11011 11008 11004 11002 11000 10997 10996 10993 10990 10989 10989 10988 10988 10988 10988 10989 10990 10991 10991 10993 10995 10995 10997 10998 10998 10998 10998 10997 10995 10992 10990 10987 10984 10980 10975 10970 10967 10964 10962
11037 11037 11036 11035 11032 11031 11028 11027 11024 11019 11017 11015 11012 11010 11005 11003 11002 10998 10994 10992 10992 10992 10991 10990 10989 10989 10990 10991 10992 10994 10996 10996 10996 10998 10998 10998 10997 10996 10994 10992 10990 10988 10983 10978 10972 10967 10963 10961 10959
11039 11039 11039 11039 11036 11033 11031 11030 11029 11025 11023 11021 11019 11016 11013 11010 11007 11004 11000 10997 10995 10994 10993 10992 10991 10990 10989 10990 10992 10994 10995 10997 10997 10997 10998 10998 10997 10995 10994 10992 10990 10987 10983 10977 10969 10965 10961 10959 10958
11040 11039 11041 11041 11039 11037 11035 11033 11032 11032 11028 11025 11025 11020 11018 11015 11013 11010 11007 11003 11000 10997 10996 10994 10992 10989 10988 10989 10991 10994 10995 10997 10998 10998 10998 10998 10997 10995 10995 10993 10990 10988 10985 10977 10972 10968 10964 10962 10962
11040 11040 11042 11042 11041 11040 11038 11035 11035 11034 11032 11029 11028 11026 11023 11020 11018 11015 11012 11008 11005 11002 10999 10997 10995 10992 10989 10989 10990 10993 10995 10997 10999 10999 10999 10998 10997 10996 10995 10994 10992 10990 10986 10982 10978 10973 10971 10968 10967
11041 11041 11042 11042 11043 11042 11040 11037 11036 11036 11035 11032 11031 11032 11028 11025 11023 11021 11018 11014 11011 11007 11004 11001 10999 10996 10994 10992 10992 10993 10995 10997 10999 10999 10999 10998 10997 10996 10996 10996 10994 10992 10989 10988 10983 10980 10977 10975 10973
11040 11041 11042 11042 11042 11042 11041 11039 11038 11038 11037 11036 11034 11033 11033 11030 11028 11026 11023 11020 11016 11012 11009 11006 11003 11001 10998 10997 10995 10995 10996 10997 10999 10999 10999 10998 10998 10998 10998 10998 10997 10995 10993 10991 10989 10987 10985 10983 10980
11038 11040 11041 11041 11042 11042 11040 11040 11040 11040 11039 11038 11036 11034 11034 11032 11031 11030 11027 11024 11021 11017 11015 11011 11008 11005 11003 11002 11000 10999 10999 10999 11000 11000 11000 11001 11001 11001 11001 11001 11000 10998 10996 10994 10993 10993 10991 10989 10988
11035 11038 11041 11041 11040 11040 11039 11041 11041 11041 11040 11039 11038 11036 11035 11034 11033 11032 11031 11028 11025 11021 11019 11017 11014 11011 11008 11006 11004 11003 11002 11003 11003 11002 11003 11003 11003 11003 11004 11004 11003 11002 11000 10998 10999 10998 10996 10995 10994
11030 11035 11037 11038 11039 11039 11039 11040 11041 11040 11040 11039 11038 11037 11036 11036 11035 11033 11032 11031 11028 11025 11022 11021 11019 11016 11014 11011 11009 11008 11007 11006 11006 11006 11006 11007 11007 11006 11006 11006 11006 11006 11004 11003 11003 11003 11001 11001 11000
11025 11028 11031 11033 11033 11036 11037 11038 11038 11038 11039 11039 11036 11036 11036 11036 11036 11035 11034 11033 11031 11029 11026 11024 11023 11021 11018 11016 11014 11012 11011 11010 11009 11009 11010 11010 11010 11010 11009 11009 11010 11010 11010 11009 11008 11008 11007 11006 11005
11021 11022 11023 11026 11030 11030 11030 11033 11033 11035 11035 11036 11035 11034 11034 11034 11035 11036 11035 11034 11033 11032 11030 11028 11026 11024 11022 11020 11018 11017 11015 11014 11013 11012 11012 11013 11013 11013 11012 11013 11013 11013 11014 11013 11012 11012 11011 11010 11009
11014 11015 11016 11020 11023 11025 11025 11028 11030 11032 11031 11032 11032 11031 11032 11033 11034 11036 11036 11035 11035 11034 11033 11031 11029 11027 11025 11024 11023 11021 11020 11018 11017 11016 11015 11015 11016 11016 11016 11015 11016 11016 11017 11017 11015 11015 11015 11014 11013
11004 11007 11010 11012 11015 11017 11020 11022 11025 11026 11026 11025 11027 11028 11029 11030 11033 11034 11035 11035 11035 11034 11033 11032 11032 11029 11028 11026 11026 11025 11023 11021 11019 11019 11019 11019 11019 11020 11020 11019 11020 11020 11019 11019 11019 11018 11017 11017 11017
10996 10998 11000 11005 11008 11008 11011 11013 11017 11018 11019 11021 11022 11024 11026 11026 11028 11031 11032 11032 11033 11034 11033 11032 11032 11031 11029 11028 11027 11027 11026 11025 11023 11022 11021 11021 11021 11022 11023 11023 11022 11023 11023 11022 11022 11021 11020 11019 11019
10985 10987 10989 10994 10997 10999 11000 11002 11004 11007 11009 11015 11017 11020 11021 11022 11022 11025 11027 11028 11030 11031 11032 11031 11030 11031 11030 11029 11028 11028 11028 11027 11027 11025 11024 11023 11023 11023 11024 11024 11024 11024 11025 11025 11024 11024 11023 11022 11021
10973 10973 10977 10982 10985 10988 10988 10990 10992 10993 10997 11008 11009 11013 11015 11017 11016 11020 11020 11023 11024 11027 11029 11029 11028 11029 11029 11028 11028 11028 11028 11028 11028 11027 11026 11025 11025 11025 11025 11026 11025 11026 11026 11026 11025 11025 11024 11023 11023
10955 10959 10962 10967 10973 10977 10969 10979 10977 10980 10984 10994 10999 11003 11007 11009 11011 11011 11015 11016 11016 11021 11023 11026 11026 11026 11027 11027 11027 11027 11027 11027 11027 11028 11027 11026 11026 11027 11027 11027 11027 11027 11026 11026 11026 11026 11025 11024 11023
10937 10941 10946 10951 10956 10957 10961 10966 10960 10965 10976 10979 10983 10989 10995 10998 11001 11003 11006 11009 11010 11012 11017 11019 11022 11022 11023 11023 11024 11024 11024 11024 11025 11026 11027 11026 11027 11027 11027 11028 11028 11028 11028 11027 11026 11026 11025 11024 11023
10917 10922 10928 10934 10937 10938 10947 10948 10948 10947 10959 10963 10968 10973 10978 10983 10987 10991 10994 10998 11001 11003 11008 11011 11014 11018 11018 11019 11020 11021 11021 11021 11022 11023 11024 11025 11026 11026 11027 11027 11028 11028 11028 11027 11027 11025 11025 11024 11022
10900 10902 10907 10911 10918 10922 10927 10929 10928 10930 10942 10945 10949 10956 10961 10966 10971 10975 10980 10984 10989 10993 10996 11001 11005 11010 11012 11013 11014 11015 11016 11016 11017 11019 11020 11021 11022 11024 11025 11026 11027 11027 11028 11027 11026 11025 11024 11024 11022
10877 10884 10886 10891 10897 10903 10906 10911 10904 10915 10920 10921 10929 10937 10942 10950 10955 10959 10965 10969 10975 10979 10985 10990 10994 10998 11002 11005 11006 11007 11009 11010 11011 11013 11014 11016 11018 11019 11020 11022 11022 11023 11024 11024 11024 11023 11023 11021 11020
10854 10860 10864 10870 10876 10882 10888 10887 10891 10895 10894 10902 10908 10917 10926 10932 10938 10943 10948 10954 10960 10965 10969 10975 10981 10986 10990 10993 10996 10998 11001 11003 11004 11005 11007 11009 11011 11012 11014 11015 11016 11017 11018 11019 11019 11019 11018 11019 11018
10833 10836 10840 10845 10852 10860 10865 10869 10873 10870 10877 10882 10889 10896 10904 10914 10920 10926 10931 10936 10944 10949 10954 10960 10967 10974 10977 10981 10987 10990 10992 10994 10996 10997 11000 11002 11003 11005 11007 11008 11009 11010 11012 11013 11013 11014 11014 11014 11013